CDT,Max TemperatureF,Mean TemperatureF,Min TemperatureF,Max Dew PointF,MeanDew PointF,Min DewpointF,Max Humidity, Mean Humidity, Min Humidity, Max Sea Level PressureIn, Mean Sea Level PressureIn, Min Sea Level PressureIn, Max VisibilityMiles, Mean VisibilityMiles, Min VisibilityMiles, Max Wind SpeedMPH, Mean Wind SpeedMPH, Max Gust SpeedMPH,PrecipitationIn, CloudCover, Events, WindDirDegrees
2013-7-1,84,74,63,68,64,61,96,80,48,29.95,29.88,29.82,10,10,7,9,2,,0.05,3,Rain-Thunderstorm,183
2013-7-2,81,73,65,66,65,64,98,80,56,30.12,30.02,29.95,10,10,10,10,1,18,0.00,5,Rain,184
2013-7-3,77,70,64,70,66,63,98,89,71,30.21,30.16,30.10,10,10,7,8,1,,0.10,7,Rain,161
2013-7-4,77,70,64,73,67,64,99,91,75,30.21,30.18,30.11,10,9,1,5,0,,1.30,7,Rain,150
2013-7-5,80,73,67,71,68,66,99,87,65,30.21,30.18,30.14,10,10,4,12,1,20,0.04,6,Rain,194
2013-7-6,77,72,66,71,67,66,100,94,79,30.20,30.17,30.15,10,8,1,7,1,,2.26,7,Rain-Thunderstorm,185
2013-7-7,77,71,65,70,67,65,100,91,71,30.21,30.16,30.12,10,8,1,9,1,,1.60,6,Rain,182
2013-7-8,84,74,63,70,66,64,99,82,53,30.25,30.20,30.14,10,10,2,7,1,,0.00,4,,191
2013-7-9,87,75,64,76,69,64,100,83,58,30.21,30.16,30.10,10,10,1,10,1,,0.00,2,Rain-Thunderstorm,216
2013-7-10,83,75,68,74,70,67,99,89,69,30.12,30.05,29.97,10,10,2,12,1,26,0.20,3,Rain-Thunderstorm,234
2013-7-11,84,76,68,70,68,66,100,81,58,30.02,29.98,29.93,10,9,2,8,1,,0.03,5,Rain,349
2013-7-12,81,72,64,67,64,61,97,76,52,30.05,30.01,29.97,10,9,5,12,3,,0.00,4,,7
2013-7-13,86,74,62,69,64,62,97,75,49,30.13,30.08,30.02,10,10,7,8,1,,0.00,4,Thunderstorm,137
2013-7-14,86,75,64,71,67,63,98,76,56,30.28,30.20,30.13,10,10,10,14,2,20,0.00,3,,117
2013-7-15,89,76,65,70,66,64,96,72,45,30.35,30.31,30.26,10,10,10,8,1,,0.00,1,,148
2013-7-16,90,77,64,72,68,64,100,78,48,30.40,30.34,30.29,10,9,0,8,1,,0.00,2,Fog,2
2013-7-17,91,79,68,73,70,67,100,86,47,30.37,30.31,30.24,10,7,0,10,1,29,0.24,4,Fog-Rain-Thunderstorm,27
2013-7-18,88,78,68,74,70,68,100,86,58,30.26,30.19,30.11,10,8,1,17,1,23,0.04,4,Rain-Thunderstorm,348
2013-7-19,89,78,68,74,71,68,100,84,53,30.15,30.09,30.02,10,7,0,10,1,,0.04,4,Fog-Thunderstorm,263
2013-7-20,88,78,68,74,70,67,99,82,55,30.07,30.01,29.94,10,10,4,10,1,22,0.02,2,Rain-Thunderstorm,210
2013-7-21,81,74,68,73,70,68,99,94,76,30.06,30.01,29.97,10,9,1,9,0,,0.89,4,Rain-Thunderstorm,156
2013-7-22,80,74,68,72,70,68,99,91,75,30.01,29.94,29.87,10,9,2,9,1,,0.73,7,Rain-Thunderstorm,187
2013-7-23,84,76,68,74,70,68,100,87,62,29.95,29.90,29.84,10,9,2,8,1,,0.12,5,Rain-Thunderstorm,226
2013-7-24,83,74,66,72,68,62,100,80,52,29.96,29.90,29.83,10,9,5,9,2,,0.03,4,Rain,344
2013-7-25,80,71,61,64,62,58,100,77,47,30.11,30.03,29.95,10,8,0,10,2,,0.00,3,Fog,10
2013-7-26,84,71,58,69,63,58,100,81,53,30.13,30.07,30.01,10,8,0,10,1,30,0.61,5,Fog-Rain-Thunderstorm,207
2013-7-27,82,73,65,71,67,64,98,86,56,30.04,29.98,29.92,10,10,7,9,1,,0.01,6,Rain,304
2013-7-28,80,69,58,68,60,54,98,72,44,30.13,30.03,29.96,10,10,7,10,2,16,0.01,3,Rain,300
2013-7-29,78,65,52,61,56,51,100,76,43,30.26,30.19,30.12,10,8,0,8,1,,0.00,2,Fog,5
2013-7-30,76,65,55,66,60,55,100,84,55,30.29,30.24,30.19,10,9,0,5,0,,0.07,4,Fog-Rain,244
2013-7-31,71,66,62,69,65,61,100,95,86,30.20,30.10,30.00,10,9,2,6,1,,0.31,8,Rain,209